Air Force Academy, CO

2:13 AM MDT on April 23, 2017 (GMT -0600)
Usaf Academy

Weather History for KAFF - September, 2012

Change the Weather History Date:

Monday, September 10, 2012

  Actual Average Record
Temperature  
Mean Temperature 65 °F -  
Max Temperature 85 °F 73 °F 86 °F (1998)
Min Temperature 46 °F 46 °F 33 °F (2016)
Growing Degree Days 15 (Base 50)    
Moisture  
Dew Point 26 °F    
Average Humidity 24    
Maximum Humidity 45    
Minimum Humidity 11    
Precipitation  
Precipitation 0.00 in - - ()
Sea Level Pressure  
Sea Level Pressure 29.84 in    
Wind  
Wind Speed 8 mph (North)    
Max Wind Speed 14 mph    
Max Gust Speed -    
Visibility 10 miles    
Events      
Averages and records for this station are not official NWS values.
T = Trace of Precipitation, MM = Missing Value Source: NWS Daily Summary

Daily Weather History Graph

Daily Weather History Graph

Search for Another Location

Airport or City:

Trip Planner

Search our weather history database for the weather conditions in past years. The results will help you decide how hot, cold, wet, or windy it might be!

Date:

Astronomy

Sep. 10, 2012 Rise Set
Actual Time 6:36 AM MDT 7:14 PM MDT
Civil Twilight 6:09 AM MDT 7:41 PM MDT
Nautical Twilight 5:37 AM MDT 8:13 PM MDT
Astronomical Twilight 5:05 AM MDT 8:45 PM MDT
Moon 1:02 AM MDT (9/10) 3:44 PM MDT (9/10)
Length of Visible Light 13h 31m
Length of Day
12h 38m
Waning Crescent, 29% of the Moon is Illuminated
Sep 10
Waning Crescent
Sep 15
New
Sep 22
First Quarter
Sep 29
Full
Oct 8
Last Quarter

Hourly Weather History & Observations

Time (MDT) Temp. Dew Point Humidity Pressure Visibility Wind Dir Wind Speed Gust Speed Precip Events Conditions
12:55 AM 47.5 °F 23.9 °F 40% 29.96 in 10.0 mi North 10.4 mph - N/A   Clear
1:55 AM 46.6 °F 24.8 °F 43% 29.94 in 10.0 mi North 9.2 mph - N/A   Clear
2:55 AM 46.6 °F 26.2 °F 45% 29.92 in 10.0 mi North 6.9 mph - N/A   Clear
3:55 AM 47.8 °F 25.3 °F 41% 29.92 in 10.0 mi Variable 3.5 mph - N/A   Clear
4:55 AM 46.9 °F 25.5 °F 43% 29.91 in 10.0 mi NNE 8.1 mph - N/A   Clear
5:55 AM 49.5 °F 24.1 °F 37% 29.91 in 10.0 mi North 4.6 mph - N/A   Clear
6:55 AM 50.5 °F 23.7 °F 35% 29.93 in 10.0 mi NNW 6.9 mph - N/A   Clear
7:55 AM 61.5 °F 26.6 °F 27% 29.92 in 10.0 mi NNE 6.9 mph - N/A   Clear
8:55 AM 72.9 °F 27.3 °F 18% 29.90 in 10.0 mi NNE 5.8 mph - N/A   Clear
9:55 AM 77.9 °F 30.2 °F 17% 29.86 in 10.0 mi Variable 3.5 mph - N/A   Clear
10:55 AM 81.5 °F 27.0 °F 14% 29.86 in 10.0 mi SW 6.9 mph - N/A   Clear
11:55 AM 81.9 °F 28.8 °F 14% 29.88 in 10.0 mi Variable 5.8 mph - N/A   Clear
12:55 PM 82.4 °F 26.6 °F 13% 29.86 in 10.0 mi Calm Calm - N/A   Clear
1:55 PM 84.2 °F 26.4 °F 12% 29.82 in 10.0 mi SW 11.5 mph - N/A   Clear
2:55 PM 83.8 °F 26.6 °F 12% 29.81 in 10.0 mi Variable 5.8 mph - N/A   Clear
3:55 PM 84.4 °F 25.0 °F 11% 29.79 in 10.0 mi South 9.2 mph - N/A   Clear
4:55 PM 84.6 °F 25.2 °F 11% 29.78 in 10.0 mi SSE 11.5 mph - N/A   Clear
5:55 PM 83.1 °F 23.9 °F 11% 29.77 in 10.0 mi South 13.8 mph - N/A   Clear
6:55 PM 76.3 °F 25.2 °F 15% 29.77 in 10.0 mi South 8.1 mph - N/A   Clear
7:55 PM 72.0 °F 27.1 °F 19% 29.77 in 10.0 mi East 8.1 mph - N/A   Partly Cloudy
8:55 PM 72.5 °F 22.8 °F 16% 29.68 in 10.0 mi ESE 9.2 mph - N/A   Clear
9:55 PM 67.6 °F 25.9 °F 21% 29.70 in 10.0 mi North 5.8 mph - N/A   Clear
10:55 PM 57.2 °F 24.8 °F 29% 29.77 in 10.0 mi NNW 9.2 mph - N/A   Clear
11:55 PM 56.8 °F 26.8 °F 32% 29.77 in 10.0 mi North 8.1 mph - N/A   Partly Cloudy